Weather Roundup
Issued by NWS Chicago, IL

Home | Current Version | Previous Version | Text Only | Print | Product List | Glossary On
Versions: 1 2 3 4 5 6 7 8 9 10 11 12 13 14 15 16 17 18 19 20 21 22 23 24 25 26 27 28 29 30 31 32 33 34 35 36 37 38 39 40 41 42 43 44 45 46 47 48 49 50
000
NZUS59 KLOT 241308
HRRLOT

CHICAGO AREA WEATHER ROUNDUP
NATIONAL WEATHER SERVICE CHICAGO/ROMEOVILLE IL
800 AM CDT SUN JUL 24 2016

NOTE: "FAIR" INDICATES FEW OR NO CLOUDS BELOW 12,000 FEET WITH NO
SIGNIFICANT WEATHER AND/OR OBSTRUCTIONS TO VISIBILITY.

* THESE STATIONS ARE NOT UNDER NWS QUALITY CONTROL. THEY ALSO MAY NOT
  REPORT WEATHER SUCH AS PRECIPITATION OR FOG.

ILZ005-006-012>014-019>023-241400-
NORTHEAST ILLINOIS

CITY           SKY/WX    TMP DP  RH WIND       PRES   REMARKS
OHARE          PTSUNNY   75  71  87 S15       29.92R
MIDWAY         CLOUDY    76  70  82 S10       29.93R
AURORA         SUNNY     77  73  87 S10       29.92R FOG
LANSING*       MOSUNNY   73  69  86 S10       29.95S
JOLIET*        CLOUDY    76  74  93 S7        29.93S
WAUKEGAN       CLOUDY    75  72  90 S13       29.90R
DUPAGE AIRPORT CLOUDY    75  71  87 S12       29.91S
WHEELING       CLOUDY    75  71  87 S10       29.92R
MORRIS*        CLOUDY    75  73  94 S5        29.92R
LEWIS AIRPORT* CLOUDY    75  70  86 S9        29.93S
NORTHERLY ISL    N/A     75  69  81 S6          N/A
$$

WIZ051-052-058>065-066-070>072-241400-
SOUTHEAST WISCONSIN

CITY           SKY/WX    TMP DP  RH WIND       PRES   REMARKS
MILWAUKEE      LGT RAIN  75  71  87 SE6       29.89R
KENOSHA*       CLOUDY    76  72  87 S12       29.90R
RACINE*        CLOUDY    74  69  85 S6        29.91R
BURLINGTON     CLOUDY    74  73  95 S6        29.88S FOG
$$

INZ001>003-010>013-019-020-241400-
NORTHWEST INDIANA

CITY           SKY/WX    TMP DP  RH WIND       PRES   REMARKS
GARY*          PTSUNNY   73 N/A N/A S9        29.95R
MICHIGAN CITY* NOT AVBL
RENSSELAER*    NOT AVBL
VALPARAISO     CLOUDY    74  70  87 S7        29.98R
$$

LMZ740>746-241400-
SOUTHERN LAKE MICHIGAN

STATION/POSITION TIME  SKY/WX   TEMP WIND        PRES    VSBY
                                AIR  DIR/SP/G
                 (UTC)          (F)  (DEG/KT/KT) (MB)    (MI)
HARRISON CRIB    1200            73  180/ 15/ 16   N/A
BURNHAM HARBOR   1300            75  160/  8/ 12   N/A
CALUMET HARBOR   1200            72  170/  9/ 13 1012.8R
BURNS HARBOR     1205            73  170/  8/ 16 1014.2R
MICHIGAN CITY    1200            73  140/ 10/ 12   N/A
$$

ABBREVIATIONS USED IN REMARKS
   TC - TEMPERATURE IN CELSIUS
  WCI - WIND CHILL INDEX
   HX - HEAT INDEX
  VSB - VISIBILITY
$$




USA.gov is the U.S. government's official web portal to all federal, state and local government web resources and services.